Terminal Aerodrome Forecast
Issued by NWS

Home | Current Version | Previous Version | Graphics & Text | Print | Product List | Glossary On
Versions: 1 2 3 4 5 6 7 8 9 10 11 12 13 14 15 16 17 18 19 20 21 22 23 24 25 26 27 28 29 30 31 32 33
392
FTUS43 KLOT 232056 AAA
TAFORD
TAF AMD
KORD 232056Z 2321/2424 04013KT P6SM BKN011 OVC020
     FM232300 04013G20KT P6SM VCSH SCT012 OVC020
      TEMPO 2323/2401 -SHRA
     FM240100 05014G21KT 5SM -SHRA BR OVC008
     FM240500 06015G22KT 3SM SHRA BR OVC005
      TEMPO 2405/2409 2SM TSRA OVC008CB
     FM241100 05011KT 2SM -RADZ BR VCSH OVC004
     FM241900 25008KT P6SM BKN007
     FM242100 24014G25KT P6SM SCT007 BKN013=

USA.gov is the U.S. government's official web portal to all federal, state and local government web resources and services.